Time,TemperatureF,DewpointF,PressureIn,WindDirection,WindDirectionDegrees,WindSpeedMPH,WindSpeedGustMPH,Humidity,HourlyPrecipIn,Conditions,Clouds,dailyrainin,SolarRadiationWatts/m^2,SoftwareType,DateUTC
2013-02-26 00:51:00,45.0,24.0,-100.00,ENE,75,7.0,13.0,43,-99.99,,,0.00,0.000000,,2013-02-26 08:51:00,
2013-02-26 01:21:00,45.0,24.0,-100.00,ENE,75,7.0,13.0,43,-99.99,,,0.00,0.000000,,2013-02-26 09:21:00,
2013-02-26 01:31:00,45.0,24.0,-100.00,ENE,75,7.0,13.0,43,-99.99,,,0.00,0.000000,,2013-02-26 09:31:00,
2013-02-26 01:43:00,45.0,24.0,-100.00,ENE,75,7.0,13.0,43,-99.99,,,0.00,0.000000,,2013-02-26 09:43:00,
2013-02-26 01:51:00,45.0,22.0,-100.00,NE,56,6.0,10.0,40,0.00,,,0.00,0.000000,,2013-02-26 09:51:00,
2013-02-26 02:21:00,45.0,22.0,-100.00,NE,56,6.0,10.0,40,0.00,,,0.00,0.000000,,2013-02-26 10:21:00,
2013-02-26 02:31:00,45.0,22.0,-100.00,NE,56,6.0,10.0,40,0.00,,,0.00,0.000000,,2013-02-26 10:31:00,
2013-02-26 02:41:00,45.0,22.0,-100.00,NE,56,6.0,10.0,40,0.00,,,0.00,0.000000,,2013-02-26 10:41:00,
2013-02-26 02:51:00,45.0,23.0,-100.00,ENE,61,6.0,7.0,41,0.00,,,0.00,0.000000,,2013-02-26 10:51:00,
2013-02-26 03:11:00,45.0,23.0,-100.00,ENE,61,6.0,7.0,41,0.00,,,0.00,0.000000,,2013-02-26 11:11:00,
2013-02-26 03:21:00,45.0,23.0,-100.00,ENE,61,6.0,7.0,41,0.00,,,0.00,0.000000,,2013-02-26 11:21:00,
2013-02-26 03:31:00,45.0,23.0,-100.00,ENE,61,6.0,7.0,41,0.00,,,0.00,0.000000,,2013-02-26 11:31:00,
2013-02-26 03:41:00,45.0,23.0,-100.00,ENE,61,6.0,7.0,41,0.00,,,0.00,0.000000,,2013-02-26 11:41:00,
2013-02-26 03:51:00,44.0,23.0,-100.00,ENE,65,5.0,8.0,43,0.00,,,-99.99,0.000000,,2013-02-26 11:51:00,
2013-02-26 04:11:00,44.0,23.0,-100.00,ENE,65,5.0,8.0,43,0.00,,,-99.99,0.000000,,2013-02-26 12:11:00,
2013-02-26 04:22:00,44.0,23.0,-100.00,ENE,65,5.0,8.0,43,0.00,,,-99.99,0.000000,,2013-02-26 12:22:00,
2013-02-26 04:32:00,44.0,23.0,-100.00,ENE,65,5.0,8.0,43,0.00,,,-99.99,0.000000,,2013-02-26 12:32:00,
2013-02-26 04:42:00,44.0,23.0,-100.00,ENE,65,5.0,8.0,43,0.00,,,-99.99,0.000000,,2013-02-26 12:42:00,
2013-02-26 04:51:00,43.0,23.0,-100.00,ENE,61,6.0,9.0,45,0.00,,,0.00,0.000000,,2013-02-26 12:51:00,
2013-02-26 05:21:00,43.0,23.0,-100.00,ENE,61,6.0,9.0,45,0.00,,,0.00,0.000000,,2013-02-26 13:21:00,
2013-02-26 05:31:00,43.0,23.0,-100.00,ENE,61,6.0,9.0,45,0.00,,,0.00,0.000000,,2013-02-26 13:31:00,
2013-02-26 05:42:00,43.0,23.0,-100.00,ENE,61,6.0,9.0,45,0.00,,,0.00,0.000000,,2013-02-26 13:42:00,
2013-02-26 05:51:00,43.0,22.0,-100.00,ENE,60,5.0,9.0,42,0.00,,,0.00,0.000000,,2013-02-26 13:51:00,
2013-02-26 06:11:00,43.0,22.0,-100.00,ENE,60,5.0,9.0,42,0.00,,,0.00,0.000000,,2013-02-26 14:11:00,
2013-02-26 06:21:00,43.0,22.0,-100.00,ENE,60,5.0,9.0,42,0.00,,,0.00,0.000000,,2013-02-26 14:21:00,
2013-02-26 06:31:00,43.0,22.0,-100.00,ENE,60,5.0,9.0,42,0.00,,,0.00,0.000000,,2013-02-26 14:31:00,
2013-02-26 06:41:00,43.0,22.0,-100.00,ENE,60,5.0,9.0,42,0.00,,,0.00,0.000000,,2013-02-26 14:41:00,
2013-02-26 06:51:00,44.0,24.0,-100.00,NE,51,5.0,7.0,45,0.00,,,0.00,8.000000,,2013-02-26 14:51:00,
2013-02-26 07:11:00,44.0,24.0,-100.00,NE,51,5.0,7.0,45,0.00,,,0.00,8.000000,,2013-02-26 15:11:00,
2013-02-26 07:21:00,44.0,24.0,-100.00,NE,51,5.0,7.0,45,0.00,,,0.00,8.000000,,2013-02-26 15:21:00,
2013-02-26 07:32:00,44.0,24.0,-100.00,NE,51,5.0,7.0,45,0.00,,,0.00,8.000000,,2013-02-26 15:32:00,
2013-02-26 07:41:00,44.0,24.0,-100.00,NE,51,5.0,7.0,45,0.00,,,0.00,8.000000,,2013-02-26 15:41:00,
2013-02-26 07:51:00,49.0,29.0,-100.00,East,83,5.0,7.0,46,0.00,,,0.00,130.000000,,2013-02-26 15:51:00,
2013-02-26 08:22:00,49.0,29.0,-100.00,East,83,5.0,7.0,46,0.00,,,0.00,130.000000,,2013-02-26 16:22:00,
2013-02-26 08:31:00,49.0,29.0,-100.00,East,83,5.0,7.0,46,0.00,,,0.00,130.000000,,2013-02-26 16:31:00,
2013-02-26 08:41:00,49.0,29.0,-100.00,East,83,5.0,7.0,46,0.00,,,0.00,130.000000,,2013-02-26 16:41:00,
2013-02-26 08:51:00,56.0,35.0,-100.00,West,278,4.0,6.0,45,0.00,,,0.00,349.000000,,2013-02-26 16:51:00,
2013-02-26 09:11:00,56.0,35.0,-100.00,West,278,4.0,6.0,45,0.00,,,0.00,349.000000,,2013-02-26 17:11:00,
2013-02-26 09:21:00,56.0,35.0,-100.00,West,278,4.0,6.0,45,0.00,,,0.00,349.000000,,2013-02-26 17:21:00,
2013-02-26 09:32:00,56.0,35.0,-100.00,West,278,4.0,6.0,45,0.00,,,0.00,349.000000,,2013-02-26 17:32:00,
2013-02-26 09:41:00,56.0,35.0,-100.00,West,278,4.0,6.0,45,0.00,,,0.00,349.000000,,2013-02-26 17:41:00,
2013-02-26 10:51:00,63.0,33.0,-100.00,WSW,255,8.0,12.0,32,-99.99,,,0.00,686.000000,,2013-02-26 18:51:00,
2013-02-26 11:11:00,63.0,33.0,-100.00,WSW,255,8.0,12.0,32,-99.99,,,0.00,686.000000,,2013-02-26 19:11:00,
2013-02-26 11:22:00,63.0,33.0,-100.00,WSW,255,8.0,12.0,32,-99.99,,,0.00,686.000000,,2013-02-26 19:22:00,
2013-02-26 11:31:00,63.0,33.0,-100.00,WSW,255,8.0,12.0,32,-99.99,,,0.00,686.000000,,2013-02-26 19:31:00,
2013-02-26 11:41:00,63.0,33.0,-100.00,WSW,255,8.0,12.0,32,-99.99,,,0.00,686.000000,,2013-02-26 19:41:00,
2013-02-26 11:51:00,67.0,35.0,-100.00,WNW,292,9.0,14.0,31,0.00,,,0.00,769.000000,,2013-02-26 19:51:00,
2013-02-26 12:21:00,67.0,35.0,-100.00,WNW,292,9.0,14.0,31,0.00,,,0.00,769.000000,,2013-02-26 20:21:00,
2013-02-26 12:31:00,67.0,35.0,-100.00,WNW,292,9.0,14.0,31,0.00,,,0.00,769.000000,,2013-02-26 20:31:00,
2013-02-26 12:41:00,67.0,35.0,-100.00,WNW,292,9.0,14.0,31,0.00,,,0.00,769.000000,,2013-02-26 20:41:00,
2013-02-26 13:51:00,68.0,41.0,-100.00,WSW,256,11.0,16.0,38,-99.99,,,0.00,738.000000,,2013-02-26 21:51:00,
2013-02-26 14:21:00,68.0,41.0,-100.00,WSW,256,11.0,16.0,38,-99.99,,,0.00,738.000000,,2013-02-26 22:21:00,
2013-02-26 14:31:00,68.0,41.0,-100.00,WSW,256,11.0,16.0,38,-99.99,,,0.00,738.000000,,2013-02-26 22:31:00,
2013-02-26 14:41:00,68.0,41.0,-100.00,WSW,256,11.0,16.0,38,-99.99,,,0.00,738.000000,,2013-02-26 22:41:00,
2013-02-26 14:51:00,68.0,43.0,-100.00,West,264,10.0,16.0,40,0.00,,,0.00,623.000000,,2013-02-26 22:51:00,
2013-02-26 15:21:00,68.0,43.0,-100.00,West,264,10.0,16.0,40,0.00,,,0.00,623.000000,,2013-02-26 23:21:00,
2013-02-26 15:31:00,68.0,43.0,-100.00,West,264,10.0,16.0,40,0.00,,,0.00,623.000000,,2013-02-26 23:31:00,
2013-02-26 15:41:00,68.0,43.0,-100.00,West,264,10.0,16.0,40,0.00,,,0.00,623.000000,,2013-02-26 23:41:00,
2013-02-26 15:51:00,67.0,43.0,-100.00,WSW,250,9.0,13.0,41,0.00,,,0.00,455.000000,,2013-02-26 23:51:00,
2013-02-26 16:11:00,67.0,43.0,-100.00,WSW,250,9.0,13.0,41,0.00,,,0.00,455.000000,,2013-02-27 00:11:00,
2013-02-26 16:21:00,67.0,43.0,-100.00,WSW,250,9.0,13.0,41,0.00,,,0.00,455.000000,,2013-02-27 00:21:00,
2013-02-26 16:31:00,67.0,43.0,-100.00,WSW,250,9.0,13.0,41,0.00,,,0.00,455.000000,,2013-02-27 00:31:00,
2013-02-26 16:41:00,67.0,43.0,-100.00,WSW,250,9.0,13.0,41,0.00,,,0.00,455.000000,,2013-02-27 00:41:00,
2013-02-26 16:51:00,66.0,45.0,-100.00,WSW,257,7.0,13.0,47,0.00,,,0.00,254.000000,,2013-02-27 00:51:00,
2013-02-26 17:21:00,66.0,45.0,-100.00,WSW,257,7.0,13.0,47,0.00,,,0.00,254.000000,,2013-02-27 01:21:00,
2013-02-26 17:31:00,66.0,45.0,-100.00,WSW,257,7.0,13.0,47,0.00,,,0.00,254.000000,,2013-02-27 01:31:00,
2013-02-26 17:41:00,66.0,45.0,-100.00,WSW,257,7.0,13.0,47,0.00,,,0.00,254.000000,,2013-02-27 01:41:00,
2013-02-26 17:51:00,62.0,44.0,-100.00,NE,38,3.0,10.0,51,0.00,,,0.00,41.000000,,2013-02-27 01:51:00,
2013-02-26 18:13:00,62.0,44.0,-100.00,NE,38,3.0,10.0,51,0.00,,,0.00,41.000000,,2013-02-27 02:13:00,
2013-02-26 18:22:00,62.0,44.0,-100.00,NE,38,3.0,10.0,51,0.00,,,0.00,41.000000,,2013-02-27 02:22:00,
2013-02-26 18:32:00,62.0,44.0,-100.00,NE,38,3.0,10.0,51,0.00,,,0.00,41.000000,,2013-02-27 02:32:00,
2013-02-26 18:41:00,62.0,44.0,-100.00,NE,38,3.0,10.0,51,0.00,,,0.00,41.000000,,2013-02-27 02:41:00,
2013-02-26 18:51:00,59.0,44.0,-100.00,ENE,58,5.0,6.0,58,0.00,,,0.00,0.000000,,2013-02-27 02:51:00,
2013-02-26 19:21:00,59.0,44.0,-100.00,ENE,58,5.0,6.0,58,0.00,,,0.00,0.000000,,2013-02-27 03:21:00,
2013-02-26 19:32:00,59.0,44.0,-100.00,ENE,58,5.0,6.0,58,0.00,,,0.00,0.000000,,2013-02-27 03:32:00,
2013-02-26 19:41:00,59.0,44.0,-100.00,ENE,58,5.0,6.0,58,0.00,,,0.00,0.000000,,2013-02-27 03:41:00,
2013-02-26 19:51:00,57.0,42.0,-100.00,WNW,296,4.0,6.0,57,0.00,,,0.00,0.000000,,2013-02-27 03:51:00,
2013-02-26 20:11:00,57.0,42.0,-100.00,WNW,296,4.0,6.0,57,0.00,,,0.00,0.000000,,2013-02-27 04:11:00,
2013-02-26 20:21:00,57.0,42.0,-100.00,WNW,296,4.0,6.0,57,0.00,,,0.00,0.000000,,2013-02-27 04:21:00,
2013-02-26 20:31:00,57.0,42.0,-100.00,WNW,296,4.0,6.0,57,0.00,,,0.00,0.000000,,2013-02-27 04:31:00,
2013-02-26 20:41:00,57.0,42.0,-100.00,WNW,296,4.0,6.0,57,0.00,,,0.00,0.000000,,2013-02-27 04:41:00,
2013-02-26 20:51:00,57.0,42.0,-100.00,East,97,3.0,7.0,58,0.00,,,0.00,0.000000,,2013-02-27 04:51:00,
2013-02-26 21:22:00,57.0,42.0,-100.00,East,97,3.0,7.0,58,0.00,,,0.00,0.000000,,2013-02-27 05:22:00,
2013-02-26 21:41:00,57.0,42.0,-100.00,East,97,3.0,7.0,58,0.00,,,0.00,0.000000,,2013-02-27 05:41:00,
2013-02-26 21:51:00,55.0,31.0,-100.00,East,81,7.0,9.0,40,0.00,,,0.00,0.000000,,2013-02-27 05:51:00,
2013-02-26 22:11:00,55.0,31.0,-100.00,East,81,7.0,9.0,40,0.00,,,0.00,0.000000,,2013-02-27 06:11:00,
2013-02-26 22:21:00,55.0,31.0,-100.00,East,81,7.0,9.0,40,0.00,,,0.00,0.000000,,2013-02-27 06:21:00,
2013-02-26 22:32:00,55.0,31.0,-100.00,East,81,7.0,9.0,40,0.00,,,0.00,0.000000,,2013-02-27 06:32:00,
2013-02-26 22:41:00,55.0,31.0,-100.00,East,81,7.0,9.0,40,0.00,,,0.00,0.000000,,2013-02-27 06:41:00,
2013-02-26 22:51:00,56.0,19.0,-100.00,East,97,8.0,12.0,23,0.00,,,0.00,0.000000,,2013-02-27 06:51:00,
2013-02-26 23:12:00,56.0,19.0,-100.00,East,97,8.0,12.0,23,0.00,,,0.00,0.000000,,2013-02-27 07:12:00,
2013-02-26 23:21:00,56.0,19.0,-100.00,East,97,8.0,12.0,23,0.00,,,0.00,0.000000,,2013-02-27 07:21:00,
2013-02-26 23:41:00,56.0,19.0,-100.00,East,97,8.0,12.0,23,0.00,,,0.00,0.000000,,2013-02-27 07:41:00,